AirNav   Bose ProFlight Series 2 Headset
 
 1124 users online  

M95 Richard Arthur Field Airport
Fayette, Alabama, USA

GOING TO FAYETTE?


FAA INFORMATION EFFECTIVE 02 JANUARY 2020

Location

FAA Identifier: M95
Lat/Long: 33-42-32.7810N 087-48-54.7510W
33-42.546350N 087-48.912517W
33.7091058,-87.8152086
(estimated)
Elevation: 357.4 ft. / 108.9 m (surveyed)
Variation: 03W (2020)
From city: 3 miles NE of FAYETTE, AL
Time zone: UTC -6 (UTC -5 during Daylight Saving Time)
Zip code: 35555

Airport Operations

Airport use: Open to the public
Activation date: 10/1946
Control tower: no
ARTCC: MEMPHIS CENTER
FSS: ANNISTON FLIGHT SERVICE STATION
NOTAMs facility: ANB (NOTAM-D service available)
Attendance: MON-FRI 0900-1300
Wind indicator: lighted
Segmented circle: yes
Lights: ACTVT PAPI RWY 01 & 19; MIRL RWY 01/19 AND TWY LGTS - CTAF.
Beacon: white-green (lighted land airport)
Operates sunset to sunrise.

Airport Communications

CTAF/UNICOM: 122.8
COLUMBUS APPROACH: 126.075
COLUMBUS DEPARTURE: 126.075
  • APCH/DEP SVC PRVDD BY MEMPHIS ARTCC ON FREQS 127.1/269.4 (COLUMBUS RCAG) WHEN COLUMBUS APCH CTL CLSD.

Nearby radio navigation aids

VOR radial/distance  VOR name  Freq  Var
LDKr330/30.4CRIMSON VORTAC117.8003E
HABr160/31.0HAMILTON VORTAC110.4002E
CBMr083/31.4CALEDONIA VORTAC115.2000E
IGBr065/37.4BIGBEE VORTAC116.2004E

Airport Services

Fuel available: 100LL JET-A
Parking: tiedowns
Bottled oxygen: NONE
Bulk oxygen: NONE

Runway Information

Runway 1/19

Dimensions: 5009 x 80 ft. / 1527 x 24 m
Surface: asphalt, in good condition
Weight bearing capacity: 
Single wheel: 15.0
Runway edge lights: medium intensity
RUNWAY 1  RUNWAY 19
Latitude: 33-42.133813N33-42.958893N
Longitude: 087-48.934883W087-48.890157W
Elevation: 330.9 ft.357.4 ft.
Traffic pattern: leftleft
Runway heading: 006 magnetic, 003 true186 magnetic, 183 true
Markings: nonprecision, in good conditionnonprecision, in good condition
Visual slope indicator: 2-light PAPI on left (3.00 degrees glide path)2-light PAPI on left (3.00 degrees glide path)
Touchdown point: yes, no lightsyes, no lights
Obstructions: 29 ft. trees, 1210 ft. from runway, 184 ft. right of centerline, 34:1 slope to clear83 ft. trees, 1299 ft. from runway, 178 ft. left of centerline, 13:1 slope to clear

Airport Ownership and Management from official FAA records

Ownership: Publicly-owned
Owner: CITY OF FAYETTE
203 TEMPLE AVE NORTH
FAYETTE, AL 35555
Phone 205-932-5367
Manager: KIP MADISON
100 21ST STREET NORTH EAST
FAYETTE, AL 35555
Phone 205-932-3819

Airport Operational Statistics

Aircraft based on the field: 8
Single engine airplanes: 7
Helicopters: 1
    
Aircraft operations: avg 42/day *
85% transient general aviation
15% local general aviation
* for 12-month period ending 31 August 2020

Additional Remarks

TWY LGTS FOR TWY TURNOFF ONLY.
DEER ON & INVOF ARPT.
FOR CD CTC MEMPHIS ARTCC AT 901-368-8453.

Instrument Procedures

NOTE: All procedures below are presented as PDF files. If you need a reader for these files, you should download the free Adobe Reader.

NOT FOR NAVIGATION. Please procure official charts for flight.
FAA instrument procedures published for use from 02 January 2020 at 0901Z to 30 January 2020 at 0900Z.

 
IAPs - Instrument Approach Procedures
RNAV (GPS) RWY 01   download (206KB)
RNAV (GPS) RWY 19   download (162KB)
NOTE: Special Take-Off Minimums/Departure Procedures apply   download (329KB)

Other nearby airports with instrument procedures:

M55 - Lamar County Airport (17 nm NW)
3M8 - North Pickens Airport (22 nm SW)
KHAB - Marion County-Rankin Fite Airport (26 nm N)
KJFX - Walker County Airport-Bevill Field (28 nm NE)
KTCL - Tuscaloosa Regional Airport (31 nm S)
 
Loc | Ops | Rwys | IFR | FBO | Links
Com | Nav | Svcs | Stats | Notes
Area around M95 (Richard Arthur Field Airport)
 
Road maps at: MapQuest Bing Google
 
Aerial photo
WARNING: Photo may not be current or correct
Aerial photo of M95 (Richard Arthur Field Airport)
Taken late October 2007

Do you have a better or more recent aerial photo of Richard Arthur Field Airport that you would like to share? If so, please send us your photo.

 
Sectional chart

 
Airport distance calculator
Flying to Richard Arthur Field Airport? Find the distance to fly.

From to M95

Sunrise and sunset
Times for 26-Jan-2020
 Local
(UTC-6)
 Zulu
(UTC)
Morning civil twilight06:2612:26
Sunrise06:5312:53
Sunset17:1523:15
Evening civil twilight17:4223:42

Current date and time
Zulu (UTC)  27-Jan-2020 04:09:40
Local (UTC-6)  26-Jan-2020 22:09:40
 
METAR
KJFX 
28nm NE 
270355Z AUTO 00000KT 6SM -RA FEW001 FEW021 OVC029 08/08 A3000 RMK AO2
KTCL 
31nm S 
270353Z AUTO 18007KT 10SM BKN023 OVC036 11/06 A3001 RMK AO2 SLP162 T01060056
KCBM 
32nm W 
270324Z AUTO 00000KT 10SM -RA OVC023 09/08 A3000 RMK AO2 RAE15DZB15E16RAB24 CIG 020 RWY31C SLP162
KM40 
35nm W 
270355Z 00000KT 4SM -RA FEW004 SCT021 BKN034 09/00 A3001 RMK AO2 TEMP/DP UNRL
K1M4 
36nm N 
270356Z AUTO 20005KT 10SM -RA BKN032 OVC041 07/06 A3001 RMK AO2 RAB45 SLP701 P0000 T00670056
KGTR 
41nm W 
270356Z AUTO 20005KT 10SM -RA OVC016 10/08 A3001 RMK AO2 RAB48 SLP170 P0000 T01000078
TAF
KTCL 
31nm S 
261720Z 2618/2718 18003KT P6SM VCSH OVC050 FM270400 00000KT 6SM -RA OVC015 FM270800 00000KT 1SM -DZ BR OVC003 FM271500 27003KT 4SM BR OVC005
KCBM 
32nm W 
261500Z 2615/2721 15009KT 9999 SCT030 BKN070 QNH3001INS TEMPO 2702/2706 8000 -RA BKN010 BECMG 2705/2706 VRB06KT 4800 BR OVC007 QNH2997INS BECMG 2716/2717 VRB06KT 9000 BR BKN016 QNH2996INS TX11/2620Z TN04/2615Z
NOTAMs
Click for the latest NOTAMs
NOTAMs are issued by the DoD/FAA and will open in a separate window not controlled by AirNav.

 

 
 

FBO, Fuel Providers, and Aircraft Ground Support

  
 Business Name 
 
 Contact 
 
 Services / Description 
 
Fuel Prices
 
Comments
  
City of Fayette (FBO) 205-932-3819
no information available

If you are affiliated with City of Fayette (FBO) and would like to show here your services, contact info, web link, logo, and more, click here
100LL Jet A
AS --- $3.47 
SS $4.17 --- 
 Updated 13-Jan-2020
 
   1 read write
AS=Assisted/Self Service
SS=Self service
Update Fuel Prices
 

Would you like to see your business listed on this page?

 If your business provides an interesting product or service to pilots, flight crews, aircraft, or users of the Richard Arthur Field Airport, you should consider listing it here.  To start the listing process, click on the button below
 
Add a business
 

Other Pages about Richard Arthur Field Airport

Update a link
 
Copyright © AirNav, LLC. All rights reserved. Privacy Policy  Contact